Location: Chevoux
(46.3801°N, 4.9476°E)
Time: 22:26:16
(UTC+00:00)

CZ-4 R/B - Pass Details

Date: 28 January 2021
Orbit: 531 x 599 km, 97.7° (Epoch: 03 March)

Event Time Altitude Azimuth Distance (km) Brightness Sun altitude
Rises 17:52:57 0° 155° (SSE) 2,767 4.8 -12.9°
Reaches altitude 10° 17:55:08 10° 151° (SSE) 1,863 3.9 -13.2°
Maximum altitude 17:59:05 57° 73° (ENE) 663 1.4 -13.9°
Drops below altitude 10° 18:02:59 10° 355° (N) 1,838 3.9 -14.6°
Sets 18:05:07 0° 351° (N) 2,726 4.9 -14.9°
